Theta_e
323 333 338 339 339 339 339 339 338 333 330 324 324 326 327 328 330 331 327 325 326 325 323 322 320 323 328 328 327 328 328 328 331 334 333 331 330 328 325 325 324 325 328
318 321 334 338 339 340 339 339 339 338 334 329 324 324 324 328 329 332 330 328 328 328 329 326 324 323 324 326 327 328 327 327 330 334 334 334 329 325 323 324 324 324 325
320 319 320 333 338 339 339 339 339 337 337 331 329 328 328 331 334 331 331 330 330 331 331 330 329 327 327 325 324 326 327 327 330 332 334 334 332 325 325 325 326 326 327
319 320 321 322 335 338 339 339 338 337 336 334 330 326 325 325 324 325 326 329 330 331 332 333 333 331 331 330 327 326 324 328 326 329 331 333 330 328 328 327 329 329 329
318 320 321 321 323 334 338 339 338 338 335 335 332 328 325 325 326 326 326 327 327 329 330 332 333 334 333 332 332 331 329 327 327 327 328 329 331 332 333 331 329 329 328
319 320 321 321 321 330 336 338 338 338 336 336 334 333 330 327 327 328 329 328 327 327 329 329 332 332 334 333 334 334 334 333 330 328 328 328 329 329 331 333 331 330 328
319 319 320 321 321 330 335 339 340 339 338 337 336 334 333 333 333 333 331 329 328 328 326 327 330 332 333 334 335 337 337 337 336 334 330 329 328 329 329 330 329 330 330
317 318 320 321 321 323 334 335 339 339 338 337 337 335 334 333 334 335 335 335 335 334 333 332 331 332 334 336 337 338 338 338 338 338 337 335 333 331 330 330 332 332 333
318 319 321 321 321 321 333 335 336 336 338 337 337 337 336 335 334 335 336 337 337 337 338 337 336 335 335 336 337 338 339 339 339 339 339 338 337 336 334 333 332 332 333
316 317 318 319 322 322 321 332 337 337 338 339 338 337 336 335 336 336 338 338 339 340 340 340 341 341 340 340 340 341 341 341 341 340 340 339 339 338 337 336 335 335 334
315 316 316 320 321 323 325 324 325 328 329 332 334 338 339 338 339 340 341 342 343 343 344 344 345 344 343 343 343 344 344 344 343 342 341 340 340 340 339 338 338 337 336
313 314 314 315 318 319 320 322 325 326 327 326 327 329 332 332 330 327 326 327 328 328 327 333 342 346 346 345 345 346 346 346 346 345 343 342 341 340 340 339 339 338 338
313 314 314 314 314 315 318 318 318 319 321 327 333 333 334 335 335 332 334 336 334 332 332 333 341 348 348 348 347 346 346 346 347 346 346 344 342 341 339 340 340 339 338
312 313 313 313 313 313 314 314 318 319 319 318 319 319 322 324 325 318 318 324 328 333 336 335 335 342 343 346 346 347 346 345 345 346 346 346 344 342 340 338 340 340 339
310 310 310 311 312 313 312 312 312 316 318 318 319 318 318 318 318 318 317 317 316 319 326 333 335 336 336 342 343 343 344 345 345 345 345 346 345 342 340 338 338 338 338
307 307 307 309 312 309 310 311 311 311 313 316 317 317 318 318 318 318 317 317 316 316 319 322 330 336 340 338 338 344 343 343 344 344 345 345 345 343 340 338 338 339 337
306 305 305 305 305 306 309 309 309 310 311 312 314 314 314 316 316 317 317 317 316 316 317 320 326 326 333 338 342 342 341 342 342 342 343 344 344 343 339 338 338 339 338
304 305 305 305 304 304 305 306 307 309 310 310 310 312 312 313 312 312 312 312 312 314 318 322 324 325 323 330 337 340 341 341 341 341 341 342 342 341 339 338 339 339 340
304 304 304 304 304 303 303 304 304 305 306 307 308 309 310 311 312 311 311 311 311 312 312 311 313 320 324 327 330 336 338 340 339 341 342 342 341 342 341 340 339 339 339
301 301 300 300 300 301 301 301 302 303 302 302 304 305 307 309 310 311 312 312 311 312 312 311 311 312 315 322 327 329 333 336 338 338 339 341 342 340 339 340 340 339 339
300 300 300 299 300 299 299 300 301 301 300 300 301 302 304 305 308 310 311 311 312 311 311 311 311 310 313 317 324 326 327 330 336 335 337 339 339 340 340 339 339 338 337
300 300 299 298 297 297 297 298 298 299 299 299 300 300 301 302 305 308 309 310 312 312 311 311 310 310 311 320 320 319 325 326 329 332 336 334 336 337 336 335 338 336 335
299 298 296 296 296 296 296 296 298 297 298 299 299 300 300 301 302 304 307 308 309 311 311 311 311 310 307 312 320 318 321 323 324 328 330 331 333 334 329 329 326 331 329
297 296 296 296 296 295 294 294 294 295 295 296 298 299 299 300 301 302 303 306 308 309 311 311 311 310 306 305 305 313 319 321 322 323 325 324 326 327 327 328 328 327 325
296 296 295 294 294 294 293 293 293 293 294 295 296 298 298 298 299 300 301 302 306 308 310 310 310 309 309 308 304 305 316 319 320 323 322 323 323 321 323 323 323 322 322
295 294 294 293 292 292 292 292 292 293 294 293 294 294 295 297 297 299 300 301 303 307 310 312 309 309 309 308 308 306 312 317 319 319 318 318 318 320 321 319 322 320 319
Wind_Speed
35 41 53 52 51 48 44 43 41 39 40 46 47 46 45 41 38 35 34 34 32 32 33 34 35 34 34 33 32 30 29 30 28 25 29 30 30 32 33 31 29 28 26
28 38 45 55 58 58 51 50 47 43 41 43 45 46 45 43 40 37 35 36 34 33 33 35 35 37 38 37 36 36 35 34 32 32 31 33 33 36 34 33 32 30 28
50 38 35 48 58 63 62 58 54 49 44 41 43 44 45 44 41 42 40 39 38 36 35 35 37 38 39 40 40 40 40 40 38 37 31 13 23 29 28 25 24 24 24
50 48 45 34 53 65 68 64 61 55 49 46 47 46 46 49 48 46 43 42 42 41 40 39 39 39 40 42 43 43 44 43 45 43 43 44 36 17 16 22 17 17 19
29 30 31 29 41 55 70 70 67 63 56 54 52 49 47 44 45 48 47 46 45 45 44 42 43 43 44 44 44 45 46 47 47 48 46 44 46 47 45 40 39 35 31
28 24 17 23 23 49 62 72 73 69 63 60 57 53 48 45 48 49 48 48 48 47 48 46 47 46 46 47 46 46 46 47 48 49 50 49 48 50 49 49 50 47 44
38 31 26 19 18 33 57 62 68 71 68 66 62 57 50 45 43 41 42 44 47 48 46 46 47 48 48 48 48 49 48 48 48 50 52 53 53 51 49 45 47 43 41
27 27 21 20 17 24 39 58 66 68 69 67 65 58 53 48 45 44 42 42 43 41 39 41 44 45 47 46 48 51 50 50 50 50 52 52 53 53 52 53 43 42 42
31 17 13 10 7 7 33 46 53 65 67 68 64 60 57 51 49 47 46 45 43 42 41 40 39 41 43 45 47 50 51 51 51 51 50 52 52 53 52 50 47 43 36
37 37 30 23 18 4 7 19 39 46 54 57 58 58 55 51 51 49 47 46 44 43 42 42 43 45 47 45 47 50 50 53 53 52 52 51 52 51 52 51 45 43 44
35 31 34 30 21 19 14 9 9 17 24 29 35 44 47 47 46 42 39 38 39 40 41 43 47 49 49 48 48 49 49 52 50 51 52 51 50 50 51 51 46 43 41
35 33 36 28 23 25 23 19 19 13 7 10 11 11 13 15 17 19 21 25 30 31 34 40 45 49 48 47 49 51 51 53 52 49 51 51 49 49 49 51 47 45 42
38 35 40 40 39 35 26 20 16 14 12 13 12 10 9 7 7 7 11 16 21 23 26 29 36 43 48 48 50 52 52 52 53 52 50 48 49 49 49 49 48 46 42
30 33 32 30 30 35 34 32 20 12 10 10 4 2 1 2 4 5 8 11 13 16 19 22 31 38 43 46 49 52 54 54 54 55 55 52 50 50 47 45 48 47 42
31 27 30 30 30 28 31 29 26 20 15 13 9 7 10 12 13 16 18 21 21 20 20 21 26 29 38 42 47 49 51 54 55 55 56 54 52 50 46 46 48 47 41
27 28 33 29 20 29 31 28 24 22 19 17 19 17 13 11 14 17 19 21 22 23 23 25 27 31 33 37 40 43 49 51 54 55 56 55 53 49 46 48 49 47 42
28 29 29 31 31 29 27 31 29 24 20 18 15 17 20 20 19 20 22 25 30 30 30 29 28 31 34 36 36 38 43 48 51 53 54 55 54 49 46 47 49 45 44
28 31 33 36 38 37 32 30 29 27 24 24 25 19 19 21 23 24 24 27 28 29 30 32 33 35 35 33 34 35 38 44 50 53 53 55 54 47 47 46 50 46 45
27 28 31 33 35 36 37 37 36 32 29 26 24 23 22 23 24 23 26 26 27 30 31 32 34 35 38 35 32 33 35 40 45 51 55 56 55 52 47 46 49 44 48
30 36 37 35 35 39 40 40 40 40 40 35 34 33 30 25 25 25 23 24 27 30 33 36 36 34 38 37 35 33 32 36 39 44 49 55 56 54 52 47 47 47 48
34 25 28 33 31 35 37 41 43 42 43 41 41 40 37 35 31 29 27 28 31 32 33 36 38 37 33 36 38 35 32 34 37 38 40 46 52 56 53 53 48 47 44
25 28 31 34 36 36 38 41 42 44 47 47 46 43 42 40 38 35 31 27 29 35 35 34 37 37 32 31 31 31 31 34 37 37 43 41 46 53 50 56 48 38 40
29 33 35 38 40 40 37 40 46 44 46 48 49 48 46 45 43 41 39 34 27 37 37 36 37 37 34 31 30 28 28 30 36 34 42 43 37 46 36 31 42 39 38
33 36 39 41 45 43 42 40 45 45 44 46 48 49 48 47 46 45 44 44 36 32 37 37 34 34 33 33 32 30 27 28 30 31 33 37 38 41 45 43 39 39 41
35 37 39 42 46 47 47 43 39 40 43 45 47 48 48 49 49 48 46 43 43 36 35 36 31 31 34 34 32 30 25 27 27 29 34 35 35 39 42 42 41 43 45
35 33 34 37 43 43 45 42 40 38 39 43 45 46 46 48 46 46 50 44 42 39 33 35 32 31 33 33 34 29 24 27 26 23 26 31 34 42 47 46 46 48 49
Wind_Direction
230 229 223 223 224 222 219 217 214 215 210 212 216 218 219 220 222 224 226 227 225 226 229 234 235 234 236 240 242 244 244 247 250 254 260 266 267 267 267 268 270 271 275
231 226 227 219 221 224 220 221 219 219 215 215 217 221 222 223 226 226 227 229 229 229 229 233 235 235 237 239 241 242 245 249 248 246 255 265 271 267 268 268 270 273 276
262 249 233 226 220 223 224 221 221 221 220 219 217 219 222 226 228 231 231 233 234 235 234 235 238 240 240 242 243 242 243 246 248 246 240 239 246 269 275 273 274 274 269
252 253 250 232 225 223 226 224 221 219 222 217 216 216 221 224 229 231 233 235 237 240 242 242 243 244 244 246 247 246 245 243 247 247 244 245 250 264 281 279 282 273 265
255 251 251 258 235 229 224 224 222 219 219 219 218 217 219 228 234 232 234 236 239 242 244 245 247 248 247 246 249 250 247 246 247 249 249 248 250 254 255 267 269 269 269
330 324 303 279 271 231 225 222 221 219 218 220 220 220 221 224 227 232 234 238 241 243 244 247 248 250 251 252 252 252 253 251 252 250 252 250 249 251 251 254 262 270 277
310 317 320 300 268 234 213 213 215 217 219 219 221 222 223 227 232 238 242 240 241 242 247 249 250 251 253 255 257 257 255 256 254 254 253 255 255 256 258 260 267 270 277
328 329 311 324 307 244 227 220 216 219 220 221 223 224 226 228 234 239 243 245 246 252 257 257 256 259 260 260 262 262 262 260 260 258 258 256 259 257 257 257 258 265 271
16 12 1 312 357 235 225 218 222 222 222 222 224 225 227 230 235 241 244 247 251 253 256 260 262 264 266 265 264 264 265 263 263 263 261 260 260 260 259 258 257 255 260
15 23 29 40 56 131 148 214 224 226 224 224 226 227 230 234 237 241 244 248 253 257 261 262 265 267 267 265 264 265 266 263 265 264 264 263 262 260 261 260 258 255 255
7 7 20 39 57 62 75 115 154 203 210 227 237 238 239 239 243 251 258 262 263 264 265 266 266 265 265 264 262 263 264 263 265 265 264 265 264 262 262 261 259 255 251
8 5 16 18 30 45 57 64 67 79 115 145 154 184 214 219 227 240 246 252 256 262 266 267 268 266 265 260 261 262 262 261 263 264 264 265 264 262 261 261 259 255 250
26 19 21 29 36 40 40 34 32 31 49 87 110 123 143 175 199 228 253 255 256 264 268 265 268 266 261 260 261 265 265 263 264 264 263 267 264 263 262 260 257 253 249
19 8 2 9 3 2 5 14 24 26 18 4 3 24 199 217 238 300 320 307 294 281 272 272 267 265 263 261 262 265 266 267 266 264 263 263 263 262 262 259 251 250 246
26 16 12 16 16 2 9 15 5 11 24 7 350 334 315 306 301 301 303 305 310 310 303 288 277 277 266 262 262 264 266 266 267 267 266 263 263 265 262 256 245 245 240
18 14 7 8 349 356 2 5 8 5 358 1 356 342 330 313 303 303 303 304 302 298 299 302 294 284 280 274 269 269 268 268 268 268 268 265 263 265 262 257 250 247 239
8 8 360 354 354 356 352 344 348 346 344 349 351 343 337 326 318 307 302 299 299 295 292 292 297 296 287 281 279 274 271 267 267 269 270 268 265 263 260 256 248 245 242
4 2 357 347 346 342 338 334 333 334 330 332 338 339 341 327 323 317 310 308 306 302 296 295 297 297 292 294 283 283 278 272 267 268 268 267 268 265 260 255 243 241 242
351 346 340 338 332 333 329 326 323 322 323 323 317 315 316 322 310 306 309 309 306 304 305 305 298 298 294 295 294 286 281 277 271 266 263 262 262 261 256 250 241 237 238
338 334 332 325 321 319 319 318 316 316 318 316 312 309 308 302 306 303 302 299 300 297 303 305 309 304 295 295 296 297 289 283 278 272 268 263 263 261 256 244 237 235 232
334 338 328 326 323 321 322 319 315 309 315 314 309 304 301 297 293 295 303 290 292 294 299 304 307 306 302 296 293 298 294 291 286 282 279 272 266 265 256 245 232 229 235
330 328 326 321 318 319 318 312 305 305 306 305 303 301 298 293 287 286 289 297 287 285 289 295 300 305 299 298 301 296 291 291 286 287 273 280 272 254 243 255 214 226 231
330 326 324 321 320 323 322 314 308 307 303 299 295 291 291 289 289 286 279 284 285 276 279 286 291 300 298 292 291 292 289 291 293 288 277 278 273 256 245 223 245 226 216
327 329 328 325 325 327 322 314 310 309 305 298 289 285 285 283 282 280 276 274 277 280 270 274 282 293 295 300 300 291 285 286 288 293 287 287 276 244 233 219 214 214 205
330 332 333 328 324 324 320 315 307 305 302 298 293 287 283 279 277 275 275 271 268 277 271 268 272 283 292 299 303 298 284 285 293 287 283 281 269 229 218 211 207 201 198
335 329 323 321 319 316 314 314 311 304 297 295 290 288 286 281 276 274 273 271 264 265 275 256 260 273 286 296 302 297 289 281 288 291 286 275 258 235 221 209 205 200 199